Arvin
DateTemperatureDew Point
09/02 - 08:15 AM67.6°50.5°
09/02 - 08:00 AM66.0°50.6°
09/02 - 07:45 AM64.2°50.0°
09/02 - 07:30 AM61.9°47.9°
09/02 - 07:15 AM58.1°47.7°
09/02 - 07:00 AM54.5°47.2°
09/02 - 06:45 AM52.2°46.3°
09/02 - 06:30 AM51.9°45.6°
09/02 - 06:15 AM52.5°45.7°
09/02 - 06:00 AM53.5°45.9°
09/02 - 05:45 AM54.0°46.0°
09/02 - 05:30 AM54.4°46.3°
09/02 - 05:15 AM54.7°47.4°
09/02 - 05:00 AM54.6°47.3°
09/02 - 04:45 AM54.3°47.1°
09/02 - 04:30 AM53.8°47.2°
09/02 - 04:15 AM53.7°46.8°
09/02 - 04:00 AM54.4°46.9°
09/02 - 03:45 AM55.1°47.0°
09/02 - 03:30 AM55.8°47.0°
09/02 - 03:15 AM56.9°46.8°
09/02 - 03:00 AM57.6°46.7°
09/02 - 02:45 AM58.1°47.3°
09/02 - 02:30 AM58.7°47.5°
09/02 - 02:15 AM58.9°47.4°
09/02 - 02:00 AM59.3°47.8°
09/02 - 01:45 AM59.5°47.9°
09/02 - 01:30 AM58.8°48.5°
09/02 - 01:15 AM58.2°48.7°
09/02 - 01:00 AM57.6°48.6°
09/02 - 12:45 AM57.6°48.4°
09/02 - 12:30 AM58.4°48.1°
09/02 - 12:15 AM59.3°48.0°
09/02 - 12:00 AM59.3°47.6°
09/01 - 11:45 PM59.2°48.7°
09/01 - 11:30 PM60.0°49.5°
09/01 - 11:15 PM60.9°49.8°
09/01 - 11:00 PM61.9°50.0°
09/01 - 10:45 PM62.2°49.7°
09/01 - 10:30 PM62.9°49.6°
09/01 - 10:15 PM64.1°50.0°
09/01 - 10:00 PM65.5°49.8°
09/01 - 09:45 PM66.5°48.7°
09/01 - 09:30 PM66.1°48.1°
09/01 - 09:15 PM66.7°49.6°
09/01 - 09:00 PM67.3°49.5°
09/01 - 08:45 PM67.0°50.1°
09/01 - 08:30 PM66.7°50.2°
09/01 - 08:15 PM67.1°49.7°
09/01 - 08:00 PM67.9°50.0°
09/01 - 07:45 PM69.1°50.2°
09/01 - 07:30 PM69.8°51.2°
09/01 - 07:15 PM71.6°53.8°
09/01 - 07:00 PM74.7°54.2°
09/01 - 06:45 PM78.8°54.1°
09/01 - 06:30 PM81.0°52.0°
09/01 - 06:15 PM82.2°50.8°
09/01 - 06:00 PM83.2°50.7°
09/01 - 05:45 PM83.9°50.5°
09/01 - 05:30 PM84.5°50.7°
09/01 - 05:15 PM84.8°51.2°
09/01 - 05:00 PM85.6°50.9°
09/01 - 04:45 PM85.6°51.7°
09/01 - 04:30 PM85.9°51.4°
09/01 - 04:15 PM85.7°51.4°
09/01 - 04:00 PM85.6°51.1°
09/01 - 03:45 PM85.5°50.9°
09/01 - 03:30 PM85.7°51.3°
09/01 - 03:15 PM85.6°52.3°
09/01 - 03:00 PM85.5°52.8°
09/01 - 02:45 PM85.5°53.0°
09/01 - 02:30 PM85.9°53.8°
09/01 - 02:15 PM84.3°53.6°
09/01 - 02:00 PM83.9°53.3°
09/01 - 01:45 PM83.3°53.4°
09/01 - 01:30 PM82.9°53.6°
09/01 - 01:15 PM83.2°53.5°
09/01 - 01:00 PM82.7°53.3°
09/01 - 12:45 PM81.5°53.2°
09/01 - 12:30 PM80.7°53.1°
09/01 - 12:15 PM80.7°53.6°
09/01 - 12:00 PM80.4°53.7°
09/01 - 11:45 AM79.4°53.4°
09/01 - 11:30 AM78.7°53.3°
09/01 - 11:15 AM77.2°53.4°
09/01 - 11:00 AM76.4°53.3°
09/01 - 10:45 AM75.8°53.2°
09/01 - 10:30 AM74.8°53.0°
09/01 - 10:15 AM73.1°52.2°
09/01 - 10:00 AM71.8°52.0°
09/01 - 09:45 AM71.5°51.8°
09/01 - 09:30 AM70.1°51.5°
09/01 - 09:15 AM69.3°51.3°
09/01 - 09:00 AM68.0°51.3°
09/01 - 08:45 AM66.8°50.6°
09/01 - 08:30 AM65.6°50.2°
09/01 - 08:15 AM64.6°50.0°
09/01 - 08:00 AM63.6°49.1°
09/01 - 07:45 AM62.3°47.9°
09/01 - 07:30 AM60.1°46.8°
09/01 - 07:15 AM58.1°45.5°
09/01 - 07:00 AM55.8°44.4°
09/01 - 06:45 AM53.6°43.6°
09/01 - 06:30 AM51.9°43.9°
09/01 - 06:15 AM51.4°42.6°
09/01 - 06:00 AM51.9°41.9°
09/01 - 05:45 AM53.4°41.8°
09/01 - 05:30 AM54.6°42.0°
09/01 - 05:15 AM55.3°41.8°
09/01 - 05:00 AM55.1°42.1°
09/01 - 04:45 AM54.7°43.0°
09/01 - 04:30 AM54.3°43.8°
09/01 - 04:15 AM54.2°43.9°
09/01 - 04:00 AM54.5°43.8°
09/01 - 03:45 AM54.8°43.7°
09/01 - 03:30 AM55.4°42.9°
09/01 - 03:15 AM56.2°42.1°
09/01 - 03:00 AM56.4°41.5°
09/01 - 02:45 AM55.9°41.2°
09/01 - 02:30 AM57.2°40.7°
09/01 - 02:15 AM58.3°40.0°
09/01 - 02:00 AM58.2°39.8°
09/01 - 01:45 AM58.3°39.7°
09/01 - 01:30 AM58.4°39.4°
09/01 - 01:15 AM59.1°41.3°
09/01 - 01:00 AM59.6°42.9°
09/01 - 12:45 AM60.3°43.2°
09/01 - 12:30 AM61.0°43.3°
09/01 - 12:15 AM61.7°43.0°
09/01 - 12:00 AM62.5°41.7°
08/31 - 11:45 PM62.9°41.2°
08/31 - 11:30 PM63.4°42.5°
08/31 - 11:15 PM64.2°42.8°
08/31 - 11:00 PM65.0°43.8°
08/31 - 10:45 PM64.6°43.8°
08/31 - 10:30 PM65.2°43.8°
08/31 - 10:15 PM66.2°44.1°
08/31 - 10:00 PM67.3°45.3°
08/31 - 09:45 PM68.1°46.2°
08/31 - 09:30 PM69.4°46.9°
08/31 - 09:15 PM71.3°46.4°
08/31 - 09:00 PM72.1°46.1°
08/31 - 08:45 PM73.3°47.0°
08/31 - 08:30 PM75.0°47.6°
08/31 - 08:15 PM76.1°46.8°
08/31 - 08:00 PM76.9°48.4°
08/31 - 07:45 PM78.7°48.1°
08/31 - 07:30 PM78.4°49.6°
08/31 - 07:15 PM80.3°51.3°
08/31 - 07:00 PM84.0°51.0°
08/31 - 06:45 PM86.8°50.4°
08/31 - 06:30 PM88.7°51.6°
08/31 - 06:15 PM90.3°51.5°
08/31 - 06:00 PM91.6°52.0°
08/31 - 05:45 PM92.9°51.2°
08/31 - 05:30 PM93.9°51.6°
08/31 - 05:15 PM94.9°50.7°
08/31 - 05:00 PM95.5°50.2°
08/31 - 04:45 PM95.9°50.5°
08/31 - 04:30 PM96.4°50.1°
08/31 - 04:15 PM97.3°51.4°
08/31 - 04:00 PM97.6°50.1°
08/31 - 03:45 PM97.9°49.5°
08/31 - 03:30 PM98.1°49.4°
08/31 - 03:15 PM97.8°49.7°
08/31 - 03:00 PM97.7°49.9°
08/31 - 02:45 PM98.8°49.5°
08/31 - 02:30 PM99.3°48.8°
08/31 - 02:15 PM98.7°48.0°
08/31 - 02:00 PM98.2°49.4°
08/31 - 01:45 PM98.2°50.6°
08/31 - 01:30 PM97.9°51.6°
08/31 - 01:15 PM97.3°51.5°
08/31 - 01:00 PM96.9°52.3°
08/31 - 12:45 PM96.5°52.4°
08/31 - 12:30 PM95.6°51.3°
08/31 - 12:15 PM95.4°52.1°
08/31 - 12:00 PM94.1°51.9°
08/31 - 11:45 AM92.8°51.0°
08/31 - 11:30 AM92.7°50.4°
08/31 - 11:15 AM91.9°50.1°
08/31 - 11:00 AM91.5°50.9°
08/31 - 10:45 AM90.3°50.4°
08/31 - 10:30 AM89.1°50.8°
08/31 - 10:15 AM87.9°50.5°
08/31 - 10:00 AM86.7°50.5°
08/31 - 09:45 AM85.2°49.6°
08/31 - 09:30 AM84.3°49.6°
08/31 - 09:15 AM82.8°49.8°
08/31 - 09:00 AM81.3°50.6°